FLOCK 4V-9 (46282 NORAD) Tracking and Keplerian Element Data

This shows tracking and keplerian element data for the satellite.

Feedback or suggestion? Click here.




ElementValue
Catalog46282
NameFLOCK 4V-9
Epoch Orbit1376
Epoch Day338.46746832
Epoch Year2020
RAAN49.829
Inclination97.5103
Eccentricity0.0004657
Argument of Perigee50.2187
Mean Anonmoly309.9452
Mean Motion15.09953938
Decay Rate1.26E-05
L11 46282U 20061L 20338.46746832 .00001260 00000-0 81548-4 0 9996
L22 46282 97.5103 49.8290 0004657 50.2187 309.9452 15.09953938 13767

Live tracking and technical data element details for FLOCK 4V-9 (NORAD 46282). FLOCK 4V-9 can be tracked NOW for your location showing map with azimuth and elevation plus other details from your city location.

Track the satellite on the map from your city or location and see movement details for azimuth, elevation, latitude, longitude, range, height, and movement on the map or in text.







IsCatalogInMostPopularTable: catalog: 46282, numindb: 16
Update: records affected: 1



GetName: 46282 FLOCK 4V-9

Hit Count: updated at: Sun, 06 Dec 2020 02:08:59 GMT